• în Republica Moldova
  • Lista ţărilor
  • Pe 7 zile
  • Temperatura apei
  • Hartă satelitară
  • Meteo pe hartă
  • Widget-uri
  • user-avatar
    Intrare

    Meteo pe oră la Algiers

    Astăzi, 30 Aprilie, Duminică

    Timp Temperatura Precipitaţii Vânt Presiune Umiditate
    00:00 +14°C° 0 mm 2 m/s 747 mmHg 92%
    01:00 +14°C° 0 mm 1 m/s 747 mmHg 91%
    02:00 +14°C° 0 mm 1 m/s 747 mmHg 90%
    03:00 +14°C° 0 mm 1 m/s 747 mmHg 90%
    04:00 +15°C° 0 mm 1 m/s 747 mmHg 87%
    05:00 +16°C° 0 mm 1 m/s 747 mmHg 85%
    06:00 +18°C° 0 mm 1 m/s 747 mmHg 83%
    07:00 +20°C° 0 mm 1 m/s 748 mmHg 75%
    08:00 +20°C° 0 mm 2 m/s 748 mmHg 67%
    09:00 +23°C° 0 mm 2 m/s 748 mmHg 60%
    10:00 +24°C° 0,1 mm 3 m/s 748 mmHg 59%
    11:00 +23°C° 0,1 mm 4 m/s 748 mmHg 59%
    12:00 +25°C° 0,1 mm 4 m/s 748 mmHg 58%
    13:00 +23°C° 0,1 mm 5 m/s 748 mmHg 60%
    14:00 +23°C° 0,1 mm 5 m/s 747 mmHg 61%
    15:00 +23°C° 0,1 mm 5 m/s 747 mmHg 63%
    16:00 +22°C° 0 mm 5 m/s 747 mmHg 69%
    17:00 +20°C° 0 mm 4 m/s 747 mmHg 75%
    18:00 +19°C° 0 mm 4 m/s 747 mmHg 81%
    19:00 +18°C° 0 mm 3 m/s 748 mmHg 85%
    20:00 +17°C° 0 mm 3 m/s 748 mmHg 89%
    21:00 +15°C° 0 mm 2 m/s 749 mmHg 93%
    22:00 +15°C° 0 mm 2 m/s 749 mmHg 93%
    23:00 +15°C° 0 mm 2 m/s 749 mmHg 92%

    Mâine, 1 Mai, Luni

    Timp Temperatura Precipitaţii Vânt Presiune Umiditate
    00:00 +15°C° 0 mm 2 m/s 749 mmHg 92%
    01:00 +14°C° 0 mm 2 m/s 749 mmHg 90%
    02:00 +14°C° 0 mm 2 m/s 749 mmHg 89%
    03:00 +13°C° 0 mm 2 m/s 749 mmHg 88%
    04:00 +14°C° 0 mm 2 m/s 749 mmHg 86%
    05:00 +15°C° 0 mm 2 m/s 749 mmHg 83%
    06:00 +16°C° 0 mm 3 m/s 749 mmHg 81%
    07:00 +17°C° 0 mm 3 m/s 750 mmHg 73%
    08:00 +19°C° 0 mm 3 m/s 750 mmHg 66%
    09:00 +21°C° 0 mm 3 m/s 751 mmHg 59%
    10:00 +21°C° 0 mm 3 m/s 751 mmHg 59%
    11:00 +22°C° 0 mm 3 m/s 750 mmHg 60%
    12:00 +22°C° 0 mm 3 m/s 750 mmHg 60%
    13:00 +22°C° 0 mm 3 m/s 750 mmHg 62%
    14:00 +22°C° 0 mm 4 m/s 750 mmHg 63%
    15:00 +22°C° 0 mm 4 m/s 750 mmHg 65%
    16:00 +21°C° 0 mm 4 m/s 750 mmHg 70%
    17:00 +20°C° 0 mm 4 m/s 750 mmHg 75%
    18:00 +19°C° 0 mm 4 m/s 750 mmHg 80%
    19:00 +17°C° 0 mm 3 m/s 750 mmHg 84%
    20:00 +16°C° 0 mm 3 m/s 751 mmHg 89%
    21:00 +13°C° 0 mm 3 m/s 751 mmHg 94%
    22:00 +13°C° 0 mm 3 m/s 751 mmHg 94%
    23:00 +12°C° 0 mm 3 m/s 751 mmHg 94%

    Poimâine, 2 Mai, Marţi

    Timp Temperatura Precipitaţii Vânt Presiune Umiditate
    00:00 +12°C° 0 mm 3 m/s 751 mmHg 95%
    01:00 +12°C° 0 mm 3 m/s 751 mmHg 95%
    02:00 +11°C° 0 mm 3 m/s 751 mmHg 95%
    03:00 +11°C° 0 mm 3 m/s 751 mmHg 95%
    04:00 +13°C° 0 mm 2 m/s 751 mmHg 93%
    05:00 +14°C° 0 mm 2 m/s 751 mmHg 91%
    06:00 +16°C° 0 mm 2 m/s 751 mmHg 90%
    07:00 +18°C° 0 mm 3 m/s 751 mmHg 80%
    08:00 +20°C° 0 mm 3 m/s 751 mmHg 71%
    09:00 +22°C° 0 mm 4 m/s 751 mmHg 62%
    10:00 +23°C° 0 mm 4 m/s 751 mmHg 59%
    11:00 +25°C° 0 mm 5 m/s 750 mmHg 56%
    12:00 +26°C° 0 mm 5 m/s 750 mmHg 53%
    13:00 +26°C° 0,1 mm 5 m/s 750 mmHg 55%
    14:00 +26°C° 0,1 mm 5 m/s 749 mmHg 58%
    15:00 +24°C° 0,1 mm 6 m/s 749 mmHg 60%
    16:00 +23°C° 0 mm 5 m/s 749 mmHg 66%
    17:00 +22°C° 0 mm 5 m/s 749 mmHg 73%
    18:00 +20°C° 0 mm 5 m/s 749 mmHg 79%
    19:00 +19°C° 0,1 mm 5 m/s 749 mmHg 84%
    20:00 +16°C° 0,1 mm 5 m/s 750 mmHg 89%
    21:00 +14°C° 0,1 mm 4 m/s 750 mmHg 94%
    22:00 +14°C° 0 mm 4 m/s 750 mmHg 93%
    23:00 +14°C° 0 mm 4 m/s 750 mmHg 93%

    3 Mai, Miercuri

    Timp Temperatura Precipitaţii Vânt Presiune Umiditate
    00:00 +14°C° 0 mm 4 m/s 749 mmHg 92%
    01:00 +14°C° 0,1 mm 3 m/s 749 mmHg 92%
    02:00 +14°C° 0,1 mm 3 m/s 749 mmHg 91%
    03:00 +14°C° 0,1 mm 3 m/s 749 mmHg 90%
    04:00 +16°C° 0 mm 3 m/s 749 mmHg 88%
    05:00 +17°C° 0 mm 3 m/s 749 mmHg 86%
    06:00 +18°C° 0 mm 3 m/s 749 mmHg 84%
    07:00 +20°C° 0 mm 4 m/s 749 mmHg 75%
    08:00 +23°C° 0 mm 4 m/s 749 mmHg 66%
    09:00 +26°C° 0 mm 4 m/s 749 mmHg 57%
    10:00 +27°C° 0,1 mm 4 m/s 749 mmHg 54%
    11:00 +28°C° 0,1 mm 5 m/s 749 mmHg 52%
    12:00 +29°C° 0,1 mm 5 m/s 749 mmHg 49%
    13:00 +28°C° 0,1 mm 5 m/s 748 mmHg 52%
    14:00 +28°C° 0,1 mm 6 m/s 748 mmHg 55%
    15:00 +28°C° 0,1 mm 6 m/s 748 mmHg 57%
    16:00 +26°C° 0,2 mm 5 m/s 747 mmHg 65%
    17:00 +25°C° 0,2 mm 5 m/s 747 mmHg 72%
    18:00 +22°C° 0,2 mm 5 m/s 747 mmHg 80%
    19:00 +21°C° 0,1 mm 4 m/s 747 mmHg 84%
    20:00 +19°C° 0,1 mm 4 m/s 748 mmHg 88%
    21:00 +17°C° 0,1 mm 4 m/s 748 mmHg 93%
    22:00 +17°C° 0 mm 4 m/s 748 mmHg 92%
    23:00 +17°C° 0 mm 3 m/s 748 mmHg 91%

    4 Mai, Joi

    Timp Temperatura Precipitaţii Vânt Presiune Umiditate
    00:00 +17°C° 0 mm 3 m/s 747 mmHg 90%
    01:00 +17°C° 0 mm 3 m/s 747 mmHg 88%
    02:00 +17°C° 0 mm 3 m/s 747 mmHg 87%
    03:00 +17°C° 0 mm 3 m/s 746 mmHg 85%
    04:00 +18°C° 0 mm 3 m/s 746 mmHg 81%
    05:00 +19°C° 0 mm 3 m/s 746 mmHg 77%
    06:00 +19°C° 0 mm 3 m/s 746 mmHg 73%
    07:00 +22°C° 0 mm 3 m/s 746 mmHg 64%
    08:00 +26°C° 0 mm 3 m/s 746 mmHg 55%
    09:00 +28°C° 0 mm 2 m/s 746 mmHg 46%
    10:00 +30°C° 0 mm 3 m/s 746 mmHg 43%
    11:00 +32°C° 0 mm 4 m/s 745 mmHg 40%
    12:00 +33°C° 0 mm 4 m/s 745 mmHg 37%
    13:00 +33°C° 0 mm 4 m/s 745 mmHg 40%
    14:00 +33°C° 0 mm 5 m/s 744 mmHg 43%
    15:00 +32°C° 0 mm 5 m/s 744 mmHg 45%
    16:00 +29°C° 0 mm 5 m/s 744 mmHg 54%
    17:00 +28°C° 0 mm 4 m/s 744 mmHg 62%
    18:00 +26°C° 0 mm 4 m/s 744 mmHg 71%
    19:00 +23°C° 0 mm 4 m/s 744 mmHg 75%
    20:00 +22°C° 0 mm 4 m/s 745 mmHg 79%
    21:00 +20°C° 0 mm 4 m/s 745 mmHg 83%
    22:00 +20°C° 0 mm 3 m/s 745 mmHg 81%
    23:00 +20°C° 0 mm 3 m/s 744 mmHg 79%

    5 Mai, Vineri

    Timp Temperatura Precipitaţii Vânt Presiune Umiditate
    00:00 +20°C° 0 mm 3 m/s 744 mmHg 77%
    01:00 +20°C° 0 mm 3 m/s 744 mmHg 75%
    02:00 +19°C° 0 mm 3 m/s 744 mmHg 74%
    03:00 +19°C° 0 mm 3 m/s 744 mmHg 72%
    04:00 +20°C° 0 mm 4 m/s 744 mmHg 66%
    05:00 +21°C° 0 mm 4 m/s 744 mmHg 60%
    06:00 +23°C° 0 mm 4 m/s 744 mmHg 55%
    07:00 +27°C° 0 mm 4 m/s 744 mmHg 48%
    08:00 +30°C° 0 mm 4 m/s 744 mmHg 40%
    09:00 +33°C° 0 mm 4 m/s 744 mmHg 33%
    10:00 +35°C° 0,1 mm 4 m/s 744 mmHg 29%
    11:00 +37°C° 0,1 mm 4 m/s 744 mmHg 25%
    12:00 +38°C° 0,1 mm 4 m/s 743 mmHg 20%
    13:00 +39°C° 0 mm 5 m/s 743 mmHg 22%
    14:00 +37°C° 0 mm 5 m/s 743 mmHg 24%
    15:00 +37°C° 0 mm 5 m/s 742 mmHg 25%
    16:00 +35°C° 0 mm 5 m/s 742 mmHg 32%
    17:00 +32°C° 0 mm 6 m/s 742 mmHg 39%
    18:00 +29°C° 0 mm 6 m/s 742 mmHg 46%
    19:00 +28°C° 0 mm 6 m/s 742 mmHg 42%
    20:00 +28°C° 0 mm 6 m/s 742 mmHg 39%
    21:00 +27°C° 0 mm 7 m/s 743 mmHg 36%
    22:00 +26°C° 0 mm 7 m/s 743 mmHg 38%
    23:00 +24°C° 0 mm 7 m/s 743 mmHg 39%
    Arată mai mult